This demonstration page uses our WeatherBlox Daily Observations layout. Learn more.

Left ArrowRight Arrow

Hourly Observations for March 30, 2021

Temp ( °F °C ) Dew Point ( °F °C ) Humidity (%) Winds ( mph kmh ) Pressure ( in mb ) Visibility ( mi km ) Precip ( " mm )
12:53 am 00:53 Mostly Cloudy 20 -6.7 11 -11.7 68 68 WNW 20 31 30.15 1021 10 16.0934 0 0
1:53 am 01:53 Partly Cloudy 20 -6.7 10 -12.2 65 65 WNW 14 22 30.19 1022 10 16.0934 0 0
2:53 am 02:53 Cloudy 20 -6.7 7 -13.9 57 57 WNW 20 31 30.2 1023 10 16.0934 0 0
3:53 am 03:53 Cloudy 19 -7.2 5 -15 54 54 WNW 12 19 30.21 1023 10 16.0934 0 0
4:53 am 04:53 Cloudy 18 -7.8 5 -15 57 57 W 12 19 30.22 1023 10 16.0934 0 0
5:53 am 05:53 Cloudy 17 -8.3 6 -14.4 62 62 W 12 19 30.24 1024 10 16.0934 0 0
6:53 am 06:53 Mostly Clear 17 -8.3 5 -15 59 59 W 14 22 30.25 1024 10 16.0934 0 0
7:53 am 07:53 Sunny 18 -7.8 7 -13.9 62 62 W 15 24 30.27 1025 10 16.0934 0 0
8:53 am 08:53 Sunny 22 -5.6 5 -15 48 48 WNW 18 30 30.27 1025 10 16.0934 0 0
9:53 am 09:53 Sunny 25 -3.9 6 -14.4 44 44 WNW 22 35 30.27 1025 10 16.0934 0 0
10:53 am 10:53 Sunny 28 -2.2 8 -13.3 43 43 WNW 18 30 30.27 1025 10 16.0934 0 0
11:53 am 11:53 Sunny 32 0 7 -13.9 35 35 W 20 31 30.26 1025 10 16.0934 0 0
12:53 pm 12:53 Mostly Sunny 33 0.6 6 -14.4 32 32 NW 17 28 30.25 1024 10 16.0934 0 0
1:53 pm 13:53 Mostly Sunny 36 2.2 6 -14.4 28 28 WNW 21 33 30.25 1025 10 16.0934 0 0
2:53 pm 14:53 Mostly Cloudy 36 2.2 8 -13.3 31 31 WNW 22 35 30.24 1024 10 16.0934 0 0
3:53 pm 15:53 Mostly Cloudy 37 2.8 7 -13.9 28 28 WNW 20 31 30.24 1024 10 16.0934 0 0
4:53 pm 16:53 Mostly Cloudy 38 3.3 7 -13.9 27 27 W 23 37 30.24 1024 10 16.0934 0 0
5:53 pm 17:53 Mostly Cloudy 37 2.8 7 -13.9 28 28 NW 18 30 30.26 1025 10 16.0934 0 0
6:53 pm 18:53 Mostly Sunny 36 2.2 4 -15.6 26 26 WNW 15 24 30.26 1025 10 16.0934 0 0
7:53 pm 19:53 Clear 31 -0.6 7 -13.9 36 36 W 9 15 30.26 1025 10 16.0934 0 0
8:53 pm 20:53 Clear 27 -2.8 8 -13.3 45 45 W 8 13 30.27 1025 10 16.0934 0 0
9:53 pm 21:53 Clear 20 -6.7 7 -13.9 57 57 SW 9 15 30.29 1026 10 16.0934 0 0
10:53 pm 22:53 Clear 21 -6.1 8 -13.3 57 57 Calm 30.3 1026 10 16.0934 0 0
11:53 pm 23:53 Clear 19 -7.2 7 -13.9 59 59 WNW 3 6 30.31 1026 10 16.0934 0 0

Powered by AerisWeather